Location: Mohawk View
(42.7837°N, 73.7885°W)
Time: 11:38:23
(UTC+00:00)

Cosmos 1242 Rocket - Pass Details

Date: 17 June 2021
Orbit: 446 x 483 km, 81.2° (Epoch: 26 July)

Event Time Altitude Azimuth Distance (km) Brightness Sun altitude
Rises 06:33:46 0° 354° (N) 2,516 7.2 -20.1°
Reaches altitude 10° 06:35:54 10° 360° (N) 1,641 6.2 -19.9°
Maximum altitude 06:39:25 52° 78° (ENE) 597 3.1 -19.7°
Enters shadow 06:40:37 34° 134° (SE) 795 3.4 -19.6°
